Wind_Speed
2 3 3 3 4 4 4 3 3 4 4 4 4 4 3 3 2 2 2 2 2 2 2 2 3 3 3 3 3 4 4 4 4 5 5 6 6 6 6 5 5 5 6
1 2 2 3 2 3 3 3 3 3 3 3 3 3 3 2 2 2 2 2 3 3 3 4 4 4 4 4 4 5 4 5 6 6 7 7 8 8 7 7 7 7 7
1 2 1 2 2 3 3 3 3 3 3 3 3 3 3 3 3 2 3 3 4 4 4 5 5 5 5 5 5 5 5 6 7 8 8 8 9 9 9 9 9 9 9
1 2 2 2 2 2 3 3 3 3 3 3 3 3 3 4 4 4 4 4 4 5 6 6 6 6 6 7 7 7 7 8 8 9 9 10 10 10 10 10 10 11 11
2 2 3 3 2 2 2 2 3 4 4 4 4 5 5 5 5 5 5 6 5 6 6 6 7 8 8 8 9 9 9 10 10 10 10 10 11 11 11 11 11 12 12
2 2 3 3 3 3 3 3 4 4 4 5 5 6 7 7 7 7 7 7 7 7 7 7 8 8 9 10 10 10 11 11 12 12 12 12 12 12 12 12 13 13 14
2 3 3 3 4 5 5 5 5 5 5 6 6 7 8 8 8 8 8 9 9 9 9 9 10 10 10 11 11 11 11 12 12 13 13 13 14 14 14 14 14 15 16
3 3 4 3 4 5 5 6 6 6 7 7 8 8 9 9 10 9 10 10 10 11 11 11 12 12 12 12 12 12 12 13 13 13 14 14 15 15 16 17 17 17 18
3 3 4 4 5 5 6 6 7 7 8 8 9 9 9 10 10 11 11 11 12 12 12 12 12 12 12 13 13 13 13 14 14 15 16 16 16 16 17 18 19 19 19
4 4 4 5 6 6 6 6 7 8 8 9 9 9 10 10 11 11 12 12 13 13 13 13 13 13 13 14 15 15 16 16 17 16 16 16 16 17 17 17 18 19 19
5 5 5 6 6 7 7 7 8 9 9 10 10 10 10 11 12 12 12 13 13 14 14 14 14 14 15 15 16 17 17 17 17 17 17 17 17 17 18 18 19 19 19
6 6 6 7 7 8 8 8 9 9 10 10 11 11 12 12 13 14 14 14 14 15 15 15 15 16 16 16 17 16 16 17 17 17 18 18 18 18 19 19 19 19 19
6 6 7 7 8 8 9 9 10 11 11 11 12 12 13 13 14 14 14 14 14 15 16 16 16 17 16 16 17 17 16 17 17 18 18 18 18 19 20 20 20 20 21
8 8 9 8 8 9 10 10 11 11 12 12 13 13 13 14 14 14 14 14 14 15 16 16 17 17 17 17 17 16 16 17 18 19 19 19 20 21 21 21 22 22 23
9 10 10 9 10 10 10 10 10 11 12 13 13 13 13 14 15 15 15 15 15 15 16 16 17 17 18 18 18 18 18 18 18 19 19 20 21 22 22 23 23 24 24
10 11 11 10 10 10 10 10 10 11 12 13 13 14 14 15 15 15 15 15 15 16 16 17 17 18 19 19 19 19 18 19 20 20 21 21 22 23 23 23 24 25 25
11 11 11 12 12 12 11 11 11 11 12 13 13 13 13 14 15 15 15 15 15 15 16 17 17 18 18 18 19 19 19 20 21 21 22 22 22 23 23 23 24 24 25
12 12 12 13 13 13 12 12 13 13 13 13 13 13 14 14 15 14 15 15 15 16 16 17 18 18 19 19 20 21 21 21 21 21 22 23 23 23 23 24 25 25 26
13 13 13 13 13 13 13 13 14 14 14 14 15 15 15 15 15 15 16 16 17 17 18 18 19 19 19 20 20 21 22 22 22 23 23 24 24 24 24 25 26 27 27
14 15 15 15 15 15 14 14 15 15 15 16 16 16 16 16 16 16 17 18 18 19 19 20 20 20 20 21 21 21 22 22 23 24 24 25 25 26 26 26 27 27 28
16 16 16 17 16 16 16 16 16 16 17 17 17 17 17 17 17 18 19 19 20 20 21 21 21 22 21 21 22 22 23 24 24 25 25 26 26 27 27 27 28 28 28
18 17 18 18 18 17 17 17 17 18 18 18 18 19 19 19 19 19 20 21 21 22 22 22 22 23 23 24 24 24 24 25 26 26 27 27 27 27 28 29 29 29 29
19 19 19 19 19 18 18 19 19 19 20 20 20 20 20 20 20 21 21 22 22 23 23 23 23 24 24 25 25 26 26 26 27 27 28 28 28 29 29 29 29 29 30
20 20 20 21 21 20 20 20 20 21 21 21 21 22 22 22 22 22 23 23 24 24 24 25 25 25 26 26 26 27 27 28 28 29 30 30 30 30 30 31 30 30 30
23 22 22 22 23 23 23 23 23 24 24 24 24 23 23 24 24 24 25 25 25 25 26 26 27 27 27 28 28 29 29 29 30 31 31 32 31 32 32 32 31 31 31
24 24 24 24 24 24 25 25 26 26 26 26 26 26 25 26 26 27 27 26 26 26 27 28 28 28 29 30 30 30 31 31 31 31 32 33 33 33 33 32 31 31 31
Wind_Direction
162 170 178 173 171 169 174 180 181 172 177 176 173 178 187 189 202 210 229 245 255 272 283 289 287 293 277 268 268 259 251 256 270 279 287 288 289 291 295 284 283 281 284
192 180 167 163 175 182 185 190 179 176 177 183 186 191 203 211 218 232 244 262 266 268 275 282 287 286 283 269 273 274 268 269 273 280 283 283 285 288 288 280 279 278 278
228 209 188 176 185 191 193 190 187 191 192 201 207 214 224 231 236 249 264 272 270 267 270 279 287 288 283 278 281 283 280 277 280 281 283 284 284 283 281 277 276 275 276
262 253 235 213 202 203 202 201 202 214 222 226 232 237 244 246 250 261 272 277 277 279 275 276 281 286 284 283 285 289 287 282 283 281 282 282 283 283 279 276 274 274 275
283 263 255 245 231 218 226 228 225 234 242 249 253 256 257 257 259 268 273 277 277 279 278 279 282 283 283 284 287 288 287 282 280 281 282 281 280 282 279 277 278 275 274
280 266 251 251 252 255 263 259 249 257 261 264 261 260 261 262 266 272 278 281 280 283 284 285 286 286 282 282 286 288 286 285 282 279 280 279 278 279 278 277 280 279 276
278 270 269 264 257 258 263 269 265 267 272 276 273 268 268 268 268 279 279 278 283 286 287 285 283 283 284 286 284 284 284 284 284 282 281 279 279 279 278 279 279 279 278
282 281 283 281 270 265 264 268 268 271 277 279 279 277 278 277 277 277 281 280 283 286 286 285 282 282 285 286 285 283 284 282 283 283 284 284 281 281 281 280 280 280 280
296 289 285 287 285 278 272 272 274 277 282 284 283 282 282 280 283 285 282 283 285 286 287 288 286 285 286 288 287 285 287 285 284 286 286 287 286 283 285 285 283 282 281
315 308 297 294 296 292 290 286 283 285 289 290 284 283 284 283 283 287 287 287 288 287 287 286 287 288 288 287 286 286 286 287 285 286 287 288 287 286 285 287 288 284 282
323 314 307 299 294 291 291 291 289 288 290 293 291 285 282 284 284 286 289 290 291 289 287 288 288 288 289 288 287 287 286 288 285 283 283 285 287 286 286 287 288 285 285
328 320 307 299 296 294 294 291 290 291 293 293 292 289 286 286 286 287 289 289 291 291 290 288 287 289 289 287 288 289 287 289 286 284 284 285 286 287 288 290 289 287 286
333 328 321 308 300 299 295 293 292 293 294 294 293 291 288 288 290 291 290 289 290 291 291 289 287 286 286 285 288 289 289 290 288 288 288 287 288 290 291 290 288 288 287
337 332 325 316 308 301 298 297 295 293 293 293 294 294 291 291 291 290 290 291 292 293 292 291 290 286 287 285 286 287 289 290 290 290 289 289 289 289 288 290 290 288 288
336 333 330 320 316 308 300 296 297 296 295 296 296 296 295 291 292 294 291 289 289 289 290 290 291 288 288 287 285 288 289 289 291 291 290 289 289 288 287 289 290 288 288
333 333 331 329 321 318 313 306 303 303 301 300 297 295 295 295 294 293 294 292 290 290 291 291 292 291 290 289 289 291 290 290 291 291 291 292 291 290 289 289 290 289 289
334 330 331 329 325 325 321 316 312 310 308 305 302 299 299 299 298 297 296 297 295 293 294 295 295 295 293 292 291 290 292 292 292 292 293 293 293 292 292 291 292 291 290
333 331 329 325 323 322 320 314 312 312 311 309 306 303 301 299 299 300 298 297 296 298 298 297 298 298 295 292 292 293 293 295 295 295 295 293 293 294 293 293 291 290 290
329 330 329 325 321 319 318 316 316 312 310 308 306 306 305 302 300 298 298 298 297 298 298 299 298 299 299 299 298 297 296 295 294 295 296 294 293 293 292 291 291 291 291
326 326 326 325 323 318 316 316 317 314 309 307 306 304 304 302 299 297 297 298 298 299 299 298 297 298 299 298 297 298 298 298 298 297 296 296 296 295 294 294 294 294 293
322 323 323 323 320 318 314 313 314 312 309 307 305 302 301 301 300 298 297 296 297 298 299 299 298 297 297 297 297 297 296 295 297 297 296 297 297 298 298 297 297 296 296
318 318 320 318 317 315 312 310 310 310 308 306 304 301 300 300 299 299 298 297 297 296 296 297 296 296 295 296 296 296 295 295 296 297 297 296 296 297 298 298 298 296 295
315 316 317 317 316 315 314 312 311 311 311 308 304 300 299 300 299 299 300 299 298 297 295 296 297 296 296 296 296 296 295 295 296 296 296 296 296 297 297 297 298 297 296
310 311 313 315 312 311 311 309 310 311 311 309 306 304 301 300 300 299 299 298 297 297 296 296 297 296 296 297 296 295 294 295 295 295 295 296 296 296 295 296 297 296 296
305 305 306 308 308 307 306 306 306 307 308 306 305 305 303 300 300 299 298 297 297 296 296 297 297 297 296 296 295 294 293 294 294 295 295 295 296 295 295 296 297 296 295
304 302 302 303 304 306 306 305 303 303 303 303 303 302 301 300 299 299 298 297 297 296 297 296 295 296 296 296 295 294 293 293 294 294 294 295 296 296 296 297 296 295 295
Height
5895 5895 5896 5897 5897 5898 5899 5899 5900 5900 5901 5902 5903 5903 5904 5904 5905 5905 5905 5906 5906 5906 5907 5907 5907 5907 5907 5907 5908 5908 5908 5908 5909 5909 5909 5909 5909 5909 5908 5908 5908 5908 5908
5895 5896 5897 5897 5898 5898 5899 5900 5900 5901 5902 5902 5903 5903 5904 5904 5904 5905 5905 5905 5905 5906 5906 5906 5906 5906 5906 5906 5907 5907 5907 5907 5908 5908 5907 5907 5907 5907 5907 5907 5906 5906 5906
5896 5896 5897 5898 5898 5899 5899 5900 5900 5901 5902 5902 5903 5903 5903 5904 5904 5904 5904 5905 5905 5905 5905 5905 5905 5906 5905 5905 5906 5906 5906 5906 5906 5906 5906 5905 5905 5905 5905 5904 5904 5904 5904
5896 5896 5897 5898 5898 5899 5899 5900 5900 5901 5902 5902 5902 5903 5903 5903 5904 5904 5904 5904 5904 5904 5904 5904 5904 5904 5904 5904 5904 5904 5904 5904 5904 5904 5903 5903 5903 5903 5902 5902 5902 5902 5901
5896 5896 5897 5898 5898 5899 5899 5900 5900 5901 5901 5902 5902 5902 5902 5902 5903 5903 5903 5903 5903 5903 5902 5902 5902 5902 5902 5902 5902 5902 5902 5902 5901 5901 5901 5901 5900 5900 5900 5899 5899 5899 5898
5896 5896 5897 5897 5898 5899 5899 5899 5900 5900 5901 5901 5901 5901 5901 5901 5901 5901 5901 5901 5901 5901 5901 5901 5901 5900 5900 5900 5900 5900 5899 5899 5898 5898 5898 5897 5897 5897 5897 5896 5896 5895 5895
5896 5896 5896 5897 5897 5898 5898 5899 5899 5899 5900 5900 5900 5900 5900 5900 5900 5899 5900 5899 5899 5899 5899 5899 5899 5898 5898 5897 5897 5897 5896 5896 5895 5895 5895 5894 5894 5893 5893 5893 5892 5892 5891
5895 5896 5896 5896 5896 5897 5897 5897 5898 5898 5898 5898 5898 5898 5898 5899 5898 5898 5897 5897 5897 5897 5897 5896 5896 5895 5895 5894 5894 5894 5893 5893 5892 5892 5891 5891 5890 5889 5889 5889 5888 5887 5887
5895 5895 5895 5895 5896 5896 5896 5896 5896 5896 5896 5897 5896 5896 5896 5896 5896 5896 5895 5895 5894 5894 5893 5893 5893 5892 5892 5891 5891 5890 5890 5889 5889 5888 5887 5887 5886 5886 5885 5884 5883 5883 5882
5895 5895 5894 5895 5895 5895 5895 5895 5895 5895 5895 5894 5894 5894 5893 5893 5893 5893 5893 5892 5892 5891 5891 5890 5890 5889 5889 5888 5887 5887 5886 5885 5885 5884 5883 5882 5882 5881 5881 5880 5879 5878 5877
5894 5894 5894 5893 5893 5893 5893 5893 5893 5893 5893 5892 5892 5891 5891 5891 5890 5890 5890 5889 5889 5888 5887 5887 5886 5886 5885 5884 5884 5883 5882 5881 5880 5879 5879 5878 5878 5877 5876 5875 5874 5873 5872
5893 5893 5892 5892 5892 5891 5891 5891 5891 5890 5890 5890 5890 5889 5888 5888 5888 5887 5887 5886 5886 5885 5884 5883 5882 5882 5881 5880 5879 5879 5878 5877 5876 5875 5875 5874 5873 5872 5871 5870 5869 5868 5867
5892 5892 5891 5890 5890 5889 5889 5889 5888 5888 5888 5887 5887 5886 5886 5885 5885 5884 5883 5883 5882 5881 5880 5879 5878 5877 5876 5875 5875 5874 5874 5873 5872 5871 5870 5869 5869 5868 5867 5865 5865 5863 5862
5892 5891 5890 5889 5888 5888 5887 5887 5886 5886 5885 5885 5884 5883 5883 5882 5881 5881 5880 5879 5879 5878 5877 5876 5875 5873 5873 5872 5871 5869 5869 5868 5867 5866 5865 5864 5864 5863 5861 5860 5859 5858 5857
5891 5890 5888 5887 5886 5886 5885 5884 5884 5883 5883 5882 5881 5880 5880 5879 5878 5877 5876 5876 5875 5874 5873 5872 5871 5870 5869 5868 5867 5865 5864 5864 5863 5861 5860 5859 5858 5857 5856 5855 5853 5852 5851
5889 5888 5887 5886 5885 5884 5883 5882 5881 5880 5880 5879 5878 5877 5876 5875 5875 5874 5872 5872 5871 5870 5869 5868 5867 5865 5864 5863 5861 5860 5860 5859 5857 5856 5855 5854 5853 5851 5850 5848 5847 5846 5844
5888 5887 5886 5884 5883 5882 5880 5880 5879 5878 5877 5876 5874 5874 5873 5872 5871 5870 5869 5868 5867 5866 5865 5864 5863 5861 5860 5858 5857 5855 5855 5854 5852 5851 5850 5848 5847 5845 5843 5842 5841 5839 5838
5886 5885 5884 5882 5881 5880 5878 5877 5876 5875 5874 5873 5871 5870 5869 5868 5867 5866 5865 5864 5863 5862 5861 5860 5858 5856 5855 5853 5852 5851 5849 5848 5847 5845 5844 5842 5841 5839 5837 5836 5834 5832 5830
5885 5883 5882 5881 5879 5877 5876 5875 5873 5872 5871 5870 5868 5867 5866 5865 5864 5862 5861 5860 5859 5858 5857 5856 5854 5852 5850 5849 5847 5846 5844 5843 5841 5840 5838 5836 5834 5833 5831 5829 5827 5825 5823
5883 5881 5880 5878 5877 5875 5874 5872 5870 5869 5868 5866 5865 5864 5862 5861 5860 5858 5857 5856 5855 5853 5852 5851 5849 5847 5846 5844 5842 5841 5839 5837 5835 5834 5832 5830 5828 5826 5824 5822 5820 5817 5815
5881 5879 5878 5876 5874 5872 5871 5869 5868 5866 5864 5863 5861 5860 5858 5857 5855 5854 5853 5852 5850 5848 5847 5845 5844 5842 5840 5839 5837 5835 5833 5831 5830 5828 5826 5824 5822 5820 5817 5815 5812 5810 5808
5879 5877 5875 5873 5871 5869 5867 5866 5864 5862 5861 5859 5857 5855 5853 5852 5851 5849 5848 5846 5845 5843 5842 5840 5838 5836 5834 5833 5831 5829 5827 5825 5823 5821 5819 5817 5815 5812 5810 5807 5805 5802 5800
5875 5874 5872 5869 5867 5865 5864 5863 5861 5859 5857 5855 5853 5850 5849 5847 5846 5844 5843 5841 5839 5838 5836 5835 5833 5831 5829 5827 5825 5823 5820 5819 5816 5814 5812 5810 5807 5805 5802 5799 5797 5795 5792
5871 5870 5868 5866 5864 5862 5860 5858 5857 5855 5852 5850 5848 5846 5844 5842 5840 5839 5837 5835 5834 5832 5830 5828 5826 5824 5822 5820 5817 5815 5813 5811 5809 5806 5804 5802 5799 5797 5794 5791 5789 5786 5784
5867 5865 5863 5862 5860 5857 5856 5854 5852 5850 5847 5845 5843 5841 5839 5837 5835 5833 5831 5829 5827 5825 5823 5821 5819 5817 5815 5812 5810 5808 5805 5803 5801 5798 5796 5793 5791 5788 5786 5783 5780 5778 5775
5861 5860 5858 5856 5854 5852 5850 5848 5846 5844 5842 5840 5838 5835 5833 5831 5829 5827 5824 5822 5820 5818 5816 5814 5812 5810 5807 5804 5802 5800 5797 5795 5792 5790 5787 5784 5782 5779 5777 5774 5771 5768 5766